Fort Wayne, IN

4:40 PM EDT on April 25, 2017 (GMT -0400)
Fort Wayne International

Weather History for KFWA - April, 2013

Change the Weather History Date:

Wednesday, April 10, 2013

  Actual Average Record
Temperature  
Mean Temperature 56 °F 48 °F  
Max Temperature 66 °F 59 °F 84 °F (1930)
Min Temperature 45 °F 37 °F 19 °F (1989)
Degree Days  
Heating Degree Days 9 17  
Month to date heating degree days 183 189  
Since 1 July heating degree days 5556 5613  
Cooling Degree Days 0 0  
Month to date cooling degree days 0 0  
Year to date cooling degree days 0 0  
Growing Degree Days 4 (Base 50)    
Moisture  
Dew Point 52 °F    
Average Humidity 89    
Maximum Humidity 100    
Minimum Humidity 78    
Precipitation  
Precipitation 1.00 in 0.13 in 1.35 in (1939)
Month to date precipitation 1.03 1.20  
Year to date precipitation 8.66 8.21  
Snow  
Snow 0.00 in 0.10 in 0.90 in (1921)
Month to date snowfall 0.0 0.6  
Since 1 July snowfall 38.5 33.1  
Snow Depth 0.00 in    
Sea Level Pressure  
Sea Level Pressure 29.86 in    
Wind  
Wind Speed 10 mph (ENE)    
Max Wind Speed 26 mph    
Max Gust Speed 32 mph    
Visibility 4 miles    
Events Rain , Thunderstorm    
T = Trace of Precipitation, MM = Missing Value Source: NWS Daily Summary

Daily Weather History Graph

Daily Weather History Graph

Search for Another Location

Airport or City:

Trip Planner

Search our weather history database for the weather conditions in past years. The results will help you decide how hot, cold, wet, or windy it might be!

Date:

Astronomy

Apr. 10, 2013 Rise Set
Actual Time 7:09 AM EDT 8:15 PM EDT
Civil Twilight 6:40 AM EDT 8:43 PM EDT
Nautical Twilight 6:07 AM EDT 9:17 PM EDT
Astronomical Twilight 5:32 AM EDT 9:52 PM EDT
Moon 7:04 AM EDT (4/10) 8:51 PM EDT (4/10)
Length of Visible Light 14h 02m
Length of Day
13h 06m
New Moon, 0% of the Moon is Illuminated
Apr 10
New Moon
Apr 18
First Quarter
Apr 25
Full
May 2
Last Quarter
May 9
New

Hourly Weather History & Observations

Time (EDT) Temp. Windchill Dew Point Humidity Pressure Visibility Wind Dir Wind Speed Gust Speed Precip Events Conditions
12:54 AM 64.9 °F - 57.9 °F 78% 29.90 in 10.0 mi Calm Calm - N/A   Overcast
1:54 AM 64.9 °F - 59.0 °F 81% 29.90 in 10.0 mi SE 4.6 mph - 0.00 in   Overcast
2:54 AM 64.0 °F - 59.0 °F 84% 29.88 in 10.0 mi South 5.8 mph - 0.00 in   Overcast
3:54 AM 57.9 °F - 53.1 °F 84% 29.87 in 6.0 mi NE 10.4 mph - N/A   Haze
4:54 AM 53.1 °F - 50.0 °F 89% 29.87 in 4.0 mi ENE 12.7 mph - N/A   Overcast
5:54 AM 52.0 °F - 50.0 °F 93% 29.87 in 3.0 mi East 8.1 mph - 0.01 in Rain Light Rain
6:54 AM 52.0 °F - 50.0 °F 93% 29.86 in 3.0 mi ENE 8.1 mph - 0.00 in   Overcast
7:54 AM 52.0 °F - 50.0 °F 93% 29.85 in 3.0 mi East 6.9 mph - N/A   Mostly Cloudy
8:54 AM 52.0 °F - 51.1 °F 97% 29.86 in 3.0 mi East 5.8 mph - 0.00 in   Overcast
9:46 AM 55.4 °F - 51.8 °F 88% 29.86 in 4.0 mi ENE 5.8 mph - N/A   Overcast
9:54 AM 55.0 °F - 52.0 °F 89% 29.87 in 4.0 mi NNE 4.6 mph - N/A Thunderstorm Overcast
10:02 AM 53.6 °F - 51.8 °F 94% 29.86 in 1.8 mi ENE 6.9 mph - 0.05 in Rain , Thunderstorm Heavy Thunderstorms and Rain
10:10 AM 53.6 °F - 51.8 °F 94% 29.87 in 2.5 mi NNE 9.2 mph - 0.10 in Rain , Thunderstorm Thunderstorms and Rain
10:14 AM 53.6 °F - 51.8 °F 94% 29.86 in 3.0 mi ENE 6.9 mph - 0.10 in Rain , Thunderstorm Light Thunderstorms and Rain
10:27 AM 53.6 °F - 51.8 °F 94% 29.86 in 3.0 mi NE 9.2 mph - 0.10 in   Overcast
10:38 AM 53.6 °F - 51.8 °F 94% 29.87 in 3.0 mi ENE 8.1 mph - 0.10 in   Overcast
10:54 AM 54.0 °F - 52.0 °F 93% 29.86 in 3.0 mi ENE 10.4 mph - 0.10 in   Mostly Cloudy
11:10 AM 55.4 °F - 53.6 °F 94% 29.86 in 3.0 mi ENE 8.1 mph - N/A   Mostly Cloudy
11:54 AM 60.1 °F - 57.0 °F 90% 29.84 in 3.0 mi East 6.9 mph - N/A   Mostly Cloudy
12:14 PM 62.6 °F - 57.2 °F 82% 29.85 in 4.0 mi ENE 5.8 mph - N/A   Overcast
12:54 PM 62.1 °F - 57.0 °F 84% 29.84 in 5.0 mi NE 6.9 mph - 0.00 in Rain Light Rain
1:26 PM 57.2 °F - 55.4 °F 94% 29.84 in 4.0 mi NNE 8.1 mph - 0.03 in Rain , Thunderstorm Light Thunderstorms and Rain
1:54 PM 57.9 °F - 55.9 °F 93% 29.84 in 5.0 mi ENE 9.2 mph - 0.03 in   Overcast
2:11 PM 57.2 °F - 55.4 °F 94% 29.85 in 3.0 mi NE 9.2 mph - N/A Thunderstorm Overcast
2:25 PM 55.4 °F - 53.6 °F 94% 29.81 in 2.5 mi NE 12.7 mph - 0.00 in Rain , Thunderstorm Light Thunderstorms and Rain
2:40 PM 55.4 °F - 53.6 °F 94% 29.87 in 2.5 mi NNE 9.2 mph - 0.01 in Rain Light Rain
2:47 PM 53.6 °F - 53.6 °F 100% 29.86 in 2.5 mi East 5.8 mph - 0.01 in   Overcast
2:54 PM 54.0 °F - 53.1 °F 97% 29.86 in 2.5 mi ESE 5.8 mph - 0.01 in   Overcast
3:11 PM 53.6 °F - 53.6 °F 100% 29.84 in 2.5 mi East 6.9 mph - N/A   Overcast
3:29 PM 53.6 °F - 53.6 °F 100% 29.84 in 2.5 mi ESE 4.6 mph - N/A   Overcast
3:54 PM 55.9 °F - 54.0 °F 93% 29.83 in 2.5 mi ENE 4.6 mph - N/A   Mostly Cloudy
3:57 PM 57.2 °F - 53.6 °F 88% 29.83 in 3.0 mi East 4.6 mph - N/A   Mostly Cloudy
4:09 PM 57.2 °F - 55.4 °F 94% 29.83 in 2.5 mi ENE 4.6 mph - 0.00 in Rain Light Rain
4:30 PM 55.4 °F - 53.6 °F 94% 29.84 in 1.0 mi North 9.2 mph - 0.01 in Rain Heavy Rain
4:33 PM 55.4 °F - 53.6 °F 94% 29.83 in 1.0 mi North 9.2 mph - 0.14 in Rain , Thunderstorm Heavy Thunderstorms and Rain
4:39 PM 55.4 °F - 53.6 °F 94% 29.84 in 2.0 mi North 4.6 mph - 0.18 in Rain , Thunderstorm Light Thunderstorms and Rain
4:49 PM 55.4 °F - 53.6 °F 94% 29.86 in 1.8 mi NNW 15.0 mph - 0.18 in Rain , Thunderstorm Thunderstorms and Rain
4:50 PM 55.0 °F - 53.1 °F 93% 29.86 in 1.8 mi NNW 13.8 mph 17.3 mph 0.19 in Rain , Thunderstorm Thunderstorms and Rain
4:58 PM 55.4 °F - 53.6 °F 94% 29.90 in 1.2 mi Variable 6.9 mph - 0.11 in Rain , Thunderstorm Heavy Thunderstorms and Rain
5:04 PM 55.4 °F - 53.6 °F 94% 29.89 in 1.0 mi NNW 9.2 mph - 0.17 in Rain , Thunderstorm Heavy Thunderstorms and Rain
5:17 PM 53.6 °F - 51.8 °F 94% 29.87 in 2.0 mi North 15.0 mph - 0.25 in Rain , Thunderstorm Thunderstorms and Rain
5:23 PM 51.8 °F - 51.8 °F 100% 29.87 in 3.0 mi NNE 11.5 mph - 0.25 in Rain , Thunderstorm Light Thunderstorms and Rain
5:49 PM 50.0 °F - 48.2 °F 94% 29.83 in 6.0 mi East 15.0 mph - 0.28 in Rain Light Rain
5:54 PM 50.0 °F - 48.9 °F 96% 29.84 in 6.0 mi ENE 13.8 mph - 0.29 in Rain Light Rain
6:16 PM 48.2 °F - 48.2 °F 100% 29.84 in 9.0 mi ENE 12.7 mph - 0.00 in Rain Light Rain
6:54 PM 48.9 °F - 48.0 °F 97% 29.87 in 8.0 mi NNE 11.5 mph - 0.00 in   Overcast
7:54 PM 48.0 °F - 46.9 °F 96% 29.91 in 8.0 mi ENE 8.1 mph - 0.00 in Rain Light Rain
8:13 PM 48.2 °F - 46.4 °F 93% 29.90 in 3.0 mi NE 9.2 mph - 0.03 in Rain , Thunderstorm Thunderstorms and Rain
8:54 PM 46.9 °F - 46.0 °F 97% 29.90 in 7.0 mi NE 11.5 mph - 0.06 in Rain , Thunderstorm Light Thunderstorms and Rain
9:16 PM 46.4 °F 39.5 °F 44.6 °F 93% 29.87 in 8.0 mi ENE 17.3 mph - 0.01 in   Overcast
9:25 PM 46.4 °F 39.8 °F 44.6 °F 93% 29.84 in 3.0 mi ENE 16.1 mph - 0.01 in Rain Rain
9:54 PM 46.0 °F 37.8 °F 45.0 °F 96% 29.81 in 3.0 mi East 23.0 mph 32.2 mph 0.06 in Rain Rain
10:54 PM 46.9 °F - 45.0 °F 93% 29.87 in 4.0 mi East 12.7 mph - 0.07 in Rain Rain
11:54 PM 46.0 °F 39.3 °F 44.1 °F 93% 29.83 in 5.0 mi East 16.1 mph - 0.02 in   Overcast